Location: Brodie Road Observatory
(45.4241°N, 74.5431°W)
Time: 23:58:31
(UTC-05:00)

Daily predictions for brighter satellites

Satellite Brightness Start Highest point End
(mag) Time Altitude Azimuth Time Altitude Azimuth Time Altitude Azimuth
YAOGAN 1 2.6 17:14:35 10° SSE 17:18:52 66° ENE 17:23:11 10° N
Cosmos 1300 2.8 17:15:40 10° N 17:19:27 54° ENE 17:23:13 10° SSE
Thor Agena Rocket 3.8 17:15:23 10° NNE 17:20:30 51° E 17:25:31 10° S
AQUARIUS 4.2 17:18:41 10° SSE 17:23:11 85° ENE 17:27:43 10° NNW
SL-16 R/B 3.1 17:18:49 10° SSE 17:23:32 28° ESE 17:28:16 10° NE
Meteor 2-10 4.2 17:19:15 10° N 17:24:12 48° ENE 17:29:16 10° SSE
COSMOS 2428 3.7 17:19:46 10° SW 17:25:17 48° WNW 17:30:49 10° NNE
SPOT 3 Rocket 3.5 17:21:22 10° SSE 17:26:31 81° ENE 17:31:43 10° NNW
Cosmos 44 Rocket 3.7 17:22:05 10° SW 17:27:11 70° NW 17:32:13 10° NNE
CZ-3A R/B 3.0 17:23:40 10° NW 17:29:24 52° NNE 17:34:12 10° ESE
CZ-4C R/B 4.3 17:29:06 10° NNW 17:33:06 17° N 17:37:24 10° NE
Cosmos 2297 3.8 17:28:24 10° NNW 17:34:02 57° ENE 17:39:40 10° SE
SL-14 R/B 3.3 17:32:45 10° S 17:36:39 64° E 17:40:38 10° NNE
Cosmos 304 Rocket 4.3 17:34:07 10° S 17:38:36 40° ESE 17:43:06 10° NE
Cosmos 1484 Rocket 2.9 17:34:58 10° SSE 17:38:51 57° ENE 17:42:48 10° N
Resurs 01 Rocket 3.4 17:37:02 10° E 17:39:04 13° ENE 17:41:08 10° NNE
Cosmos 1340 Rocket 3.2 17:36:50 10° SSE 17:40:32 41° E 17:44:15 10° NNE
Cosmos 2279 Rocket 4.0 17:36:26 10° N 17:42:38 65° E 17:48:48 10° SSE
Meteor 1-28 Rocket 4.2 17:41:16 10° NE 17:44:27 27° E 17:47:39 10° SSE
Lacrosse 4 Rocket 2.3 17:41:20 10° N 17:44:47 26° NE 17:48:13 10° ESE
Cosmos 1151 Rocket 3.3 17:41:19 10° NNW 17:45:35 71° W 17:49:51 10° S
Cosmos 372 Rocket 4.3 17:45:13 10° NNW 17:50:18 69° WSW 17:55:21 10° S
IDEFIX/ARIANE 42P 3.8 17:48:27 10° S 17:53:27 46° W 17:58:30 10° NNW
ATLAS 3B R/B 4.5 17:49:23 10° NW 17:53:54 17° N 17:58:16 10° NE
Cosmos 540 Rocket 3.7 17:50:21 10° SSW 17:55:31 73° WNW 18:00:43 10° NNE
Aureole 2 Rocket 2.7 17:51:48 10° SSW 17:55:38 89° WNW 17:59:47 10° NNE
NOAA 12 4.3 17:55:33 10° SE 18:00:33 47° ENE 18:05:36 10° N
USA 215 3.4 17:54:13 10° ESE 18:00:37 58° NNE 18:07:02 10° NW
Cosmos 2058 2.9 17:58:30 10° S 18:02:36 87° W 18:06:44 10° N
ATLAS 5 CENTAUR R/B 3.8 17:59:37 10° NNW 18:03:25 18° NNE 18:05:48 14° NE
Cosmos 1980 4.2 17:58:08 10° SW 18:03:44 61° WNW 18:09:23 10° NNE
Nadezhda 4 Rocket 4.3 17:58:37 10° SSE 18:04:31 45° E 18:10:28 10° NNE
Lacrosse 5 3.5 18:01:14 10° NW 18:05:10 22° N 18:08:06 14° NE
Cosmos 1805 Rocket 3.6 18:01:52 10° S 18:06:15 62° E 18:10:40 10° NNE
Cosmos 2242 Rocket 4.2 18:02:21 10° N 18:06:21 32° ENE 18:10:21 10° SE
SKYMED 2 3.5 18:02:04 10° NNE 18:06:25 72° ESE 18:10:44 10° S
Cosmos 1900 4.5 18:02:26 10° NW 18:07:24 78° WSW 18:12:24 10° SSE
Cosmos 1461 2.8 18:04:58 10° SSW 18:09:07 71° ESE 18:12:04 18° NE
Cosmos 2180 Rocket 4.5 18:05:30 10° N 18:11:42 88° E 18:17:56 10° S
Meteor 1-11 4.5 18:09:31 10° SSW 18:15:13 75° WNW 18:21:02 10° N
Cosmos 1626 2.1 18:11:41 10° S 18:15:21 58° E 18:19:03 10° NNE
Aureole 1 Rocket 4.3 18:12:22 10° S 18:17:40 45° E 18:24:30 10° NNE
Cosmos 44 4.4 18:14:00 10° WSW 18:18:57 43° NW 18:23:41 10° NNE
Sich 1 3.1 18:14:58 10° S 18:19:19 55° E 18:23:39 10° NNE
Lacrosse 5 rocket 3.9 18:17:22 10° WNW 18:20:13 20° SW 18:23:10 10° S
Cosmos 2219 Rocket 3.7 18:15:52 10° WSW 18:20:54 32° NW 18:25:57 10° N
Cosmos 1943 Rocket 3.8 18:18:17 10° N 18:21:11 15° NE 18:21:11 15° NE
Cosmos 1356 Rocket 3.2 18:18:41 10° S 18:22:38 68° E 18:26:38 10° NNE
ALOS 2.7 18:21:01 10° SE 18:25:17 37° ENE 18:29:35 10° N
Cosmos 1092 Rocket 4.2 18:20:49 10° SSE 18:26:50 48° E 18:32:54 10° NNE
Cosmos 2333 Rocket 3.6 18:22:31 10° WSW 18:27:41 36° NW 18:32:54 10° NNE
Cosmos 1603 4.3 18:23:15 10° SSE 18:28:15 34° ESE 18:30:07 27° ENE
Cosmos 1633 Rocket 3.0 18:25:18 10° S 18:29:38 62° E 18:33:59 10° NNE
FengYun 1-2 T 4.4 18:26:04 10° SE 18:31:22 48° ENE 18:36:39 10° N
CENTAUR R/B 4.2 18:28:47 10° W 18:34:18 28° NNW 18:40:21 10° NNE
Cosmos 1455 2.2 18:31:23 10° N 18:35:12 83° W 18:39:01 10° S
Cosmos 292 Rocket 4.3 18:30:57 10° SSE 18:35:13 34° ESE 18:35:33 34° E
Coronas F rocket 3.7 18:33:20 10° S 18:33:36 12° S 18:33:36 12° S
FAST Rocket 4.3 18:37:21 10° SSW 18:39:55 65° W 18:41:56 19° N
Abrixas 2.9 18:40:15 10° W 18:42:57 52° NNW 18:42:57 52° NNW
USA 229 DEB 3.7 18:36:44 10° SSW 18:43:25 59° ESE 18:47:09 28° NE
USA 229 3.7 18:36:50 10° SSW 18:43:31 59° ESE 18:47:12 28° NE
Cosmos 1703 4.3 18:42:33 10° SSW 18:46:17 45° WNW 18:50:03 10° N
Cosmos 1242 Rocket 3.7 18:43:00 10° N 18:44:49 28° N 18:44:49 28° N
Cosmos 1184 Rocket 2.9 18:44:21 10° SSW 18:47:40 73° W 18:48:42 41° N
SJ-6B 3.1 18:45:41 10° S 18:49:46 74° WSW 18:53:56 10° NNW
Spot 2 Rocket 3.4 18:45:25 10° SSE 18:50:22 60° ENE 18:55:20 10° N
Cosmos 1862 Rocket 3.7 18:46:09 10° N 18:49:59 49° NE 18:49:59 49° NE
Orbus 7S? 4.3 18:46:49 10° NW 18:50:55 87° NE 19:00:10 12° SE
COSMO-SKYMED 1 4.1 18:50:22 10° N 18:54:21 36° WNW 18:58:20 10° SW
Iridium 4 Rocket 2.8 18:49:59 10° S 18:54:24 76° E 18:57:11 21° N
SL-19 R/B 4.2 18:52:00 10° SSE 18:57:49 86° ENE 19:03:25 10° NNW
Cosmos 2237 Rocket 4.0 18:54:30 10° WSW 18:59:17 28° NW 19:04:06 10° N
Cosmos 2369 Rocket 2.4 18:55:29 10° NNW 19:00:57 46° ENE 19:01:00 46° ENE
Cosmos 2084 Rocket 4.4 18:57:56 10° NNW 19:00:16 31° N 19:00:16 31° N
H-2A ROCKET BODY 4.3 18:46:53 10° WSW 19:04:47 28° SSW 19:09:18 15° SSE
SL-16 R/B 3.0 19:01:55 10° SW 19:07:23 48° WNW 19:11:55 15° NNE
FREGAT/IRIS 4.4 19:05:38 10° SSW 19:08:26 33° W 19:11:17 10° NNW
Cosmos 1417 Rocket 4.4 19:06:36 10° N 19:12:42 57° ENE 19:13:15 55° E
Resurs 01 Rocket 1.6 19:12:15 24° S 19:14:56 79° WSW 19:19:25 10° NNW
Resurs 1-3 4.0 19:16:00 54° N 19:16:00 54° N 19:19:25 10° NNW
Cosmos 923 Rocket 3.9 19:10:37 10° SSW 19:15:50 89° WNW 19:17:00 56° NNE
Cosmos 1933 Rocket 3.8 19:12:50 10° S 19:16:31 61° S 19:16:31 61° S
Cosmos 1680 Rocket 3.3 19:17:02 10° SSW 19:22:05 79° SE 19:22:05 79° SE
Lacrosse 4 Rocket 2.9 19:19:51 10° NW 19:23:32 34° WSW 19:25:17 23° SSW
Cosmos 1655 Rocket 3.9 19:17:27 10° S 19:23:44 65° E 19:24:06 63° ENE
CZ-4C R/B 3.6 19:17:48 10° NNW 19:23:28 32° NNE 19:23:28 32° NNE
Cosmos 1627 Rocket 4.3 19:19:56 10° S 19:26:07 86° E 19:32:17 10° N
Cosmos 1867 4.2 19:22:27 10° NNW 19:26:33 44° N 19:26:33 44° N
FENGYUN 3A 4.1 19:26:08 10° S 19:31:24 59° W 19:36:45 10° NNW
NOSS 3-1 (C) 4.2 19:29:24 10° SSW 19:32:51 35° S 19:32:51 35° S
USA 215 3.8 19:40:52 32° SSE 19:43:41 53° SW 19:50:05 10° WNW
S3M 4.5 19:40:34 10° N 19:45:05 49° N 19:45:05 49° N
ATLAS 3B R/B 4.0 19:41:21 10° NNW 19:45:53 26° N 19:45:53 26° N
Lacrosse 5 3.6 19:44:47 10° NW 19:47:19 24° NNW 19:47:19 24° NNW
ATLAS 5 CENTAUR R/B 3.3 19:43:42 10° NNW 19:47:23 36° N 19:47:23 36° N
Cosmos 2026 Rocket 4.2 19:47:08 10° SSW 19:53:17 67° W 19:55:59 35° N
ALOS 4.3 19:58:55 10° SSW 20:02:48 26° W 20:06:42 10° NW
Cosmos 1943 Rocket 3.9 20:00:38 10° NNW 20:02:44 24° NNW 20:02:44 24° NNW
Cosmos 2369 Rocket 4.2 20:39:56 10° NW 20:42:51 24° WNW 20:42:51 24° WNW
CZ-4C R/B 4.5 21:06:04 10° NW 21:08:40 26° NW 21:08:40 26° NW
